Location: Carr Mill
(33.2054°N, 85.9439°W)
Time: 22:33:41
(UTC+00:00)

STARLINK-2756 - Pass Details

Date: 24 June 2021
Orbit: 348 x 351 km, 53.0° (Epoch: 04 August)

Event Time Altitude Azimuth Distance (km) Brightness Sun altitude
Exits shadow 08:05:16 20° 64° (ENE) 866 5.3 -24.4°
Drops below altitude 10° 08:06:24 10° 55° (NE) 1,308 6.5 -24.3°
Sets 08:08:27 0° 50° (NE) 2,153 7.9 -24.0°
